Retour au catalogue

STARLINK-36258

ActifCommunicationsVLEO
NORAD 67104·PAYLOAD·🇺🇸 United States

Lancé Dec 15, 2025 depuis Cape Canaveral Space Force Station

Loading…

Prochains Passages (prochaines 24 heures)

TLE

FraisSource: CelesTrak SupGP

Époque: Sep 14, 2026, 22:50 UTC

1 67104C 25299C   26257.95187500 -.00051670  00000+0 -18713-2 0  2571
2 67104  43.0023 180.3510 0001326 264.2611 288.0485 15.27607034    15

Suivez STARLINK-36258 en temps réel avec AllMySat

Download on the App Store